Wind_Speed
27 27 26 24 22 23 22 22 22 21 20 19 19 17 17 17 16 15 16 17 17 16 15 15 15 15 15 15 15 15 15 14 14 14 14 15 15 14 14 14 14 14 14 13 13 12 12 12 12 11 12 12 13 15 18 21 23 24 25 26 26 25 24 23 21 20 18 17 16 16 16 15 15 15 14 13 13 13 15 16 16 15 14 13 14
31 28 28 25 24 24 23 23 22 22 21 19 19 18 18 17 16 16 17 18 17 16 15 15 15 15 15 15 15 15 15 15 14 13 14 14 14 14 13 13 13 14 14 13 12 12 12 12 11 10 12 12 14 17 19 21 22 23 23 23 24 24 23 23 22 20 19 17 16 15 15 14 14 15 14 14 13 14 14 14 14 14 13 13 13
32 29 28 25 24 25 24 23 22 22 21 20 19 18 18 17 17 17 18 18 17 16 14 14 14 14 14 14 14 15 15 14 13 12 13 12 12 14 13 13 13 13 13 13 13 12 12 12 10 10 12 12 13 17 19 20 20 20 20 20 20 21 20 20 20 19 18 17 15 14 15 14 14 14 15 15 14 15 15 13 13 13 13 13 13
33 31 28 25 24 25 25 23 23 22 21 20 19 19 19 18 18 19 19 18 17 16 14 14 14 14 13 13 14 14 14 14 13 12 12 10 11 14 13 12 13 13 13 13 13 11 11 11 10 11 12 12 13 16 18 18 18 18 17 17 17 17 17 16 16 15 15 15 15 13 13 14 13 14 15 15 15 15 14 13 12 12 13 13 13
33 31 28 26 25 26 24 24 23 22 21 20 20 20 20 19 19 19 19 18 17 16 14 14 14 14 12 12 13 13 13 14 13 11 11 10 12 15 13 12 12 12 12 13 13 11 11 11 11 12 12 13 15 16 17 17 16 16 15 14 14 13 14 13 13 12 12 12 13 12 12 13 14 14 14 14 14 14 13 13 12 12 13 13 12
34 32 29 28 27 26 25 25 23 22 22 21 21 20 20 20 20 19 18 18 17 16 14 14 14 13 12 12 12 12 12 12 12 11 10 11 15 15 13 13 12 12 13 13 13 12 12 12 12 13 13 14 16 17 17 16 15 14 13 12 11 10 10 10 10 9 9 9 11 12 12 13 13 13 13 13 13 13 13 13 12 13 13 13 12
34 33 30 30 28 27 26 24 22 23 23 22 22 21 21 21 20 19 18 18 17 16 15 14 14 13 12 11 11 11 10 10 11 10 10 12 15 15 14 13 12 13 13 14 13 12 11 12 12 12 14 16 18 18 17 16 14 13 11 10 9 9 9 8 8 7 6 8 10 12 12 12 12 12 12 12 12 13 13 12 12 12 12 12 12
34 33 31 31 29 28 27 24 23 23 23 22 22 22 21 21 20 19 18 18 17 15 14 14 13 13 12 10 10 9 9 9 9 9 10 12 13 14 14 13 13 13 13 14 13 12 11 12 11 12 15 17 18 18 17 15 13 12 10 10 9 9 9 9 10 7 6 9 10 11 11 11 10 11 12 12 11 11 11 10 10 10 11 11 11
34 33 32 31 29 28 27 25 24 24 23 22 21 21 21 21 20 19 18 17 16 15 14 14 13 12 11 10 9 8 7 7 7 7 9 11 12 13 14 13 13 13 14 14 12 11 11 11 11 13 15 16 17 17 16 14 13 11 10 10 9 9 9 10 11 9 8 10 10 11 11 10 10 11 11 11 11 10 10 10 10 10 11 11 11
34 33 32 31 29 28 27 26 25 24 23 22 21 21 21 21 20 19 18 17 16 16 14 14 13 12 11 10 8 7 6 6 6 7 9 10 11 12 13 13 13 13 14 13 11 11 11 10 12 14 15 15 15 15 14 13 12 11 10 10 10 10 9 8 10 8 9 11 10 11 10 9 10 11 10 10 10 9 9 9 9 10 11 12 13
34 32 32 30 29 28 28 27 25 25 23 22 22 21 21 20 19 19 18 17 17 16 15 14 13 12 11 9 7 7 6 6 6 7 9 11 11 12 12 12 12 13 12 11 11 11 10 12 13 14 14 15 15 14 13 12 11 11 11 10 11 11 9 6 7 8 9 11 10 10 10 8 9 10 9 8 8 9 8 9 10 11 12 13 13
33 33 31 29 28 28 28 27 26 25 23 22 22 22 21 19 19 19 18 17 17 16 15 14 13 12 10 9 7 6 5 6 6 7 9 11 12 12 12 11 12 12 11 11 11 11 11 13 14 14 14 14 14 14 13 12 12 12 12 12 13 13 9 6 6 8 10 10 10 10 9 8 9 9 8 8 9 9 9 10 11 12 12 12 12
33 32 31 29 28 28 28 27 27 25 23 22 22 22 20 19 19 18 18 17 16 16 15 14 13 12 10 8 6 5 5 5 6 7 9 11 13 12 11 11 11 11 11 11 12 12 12 12 13 14 14 14 14 13 13 12 12 12 13 13 14 14 12 10 11 12 12 11 10 9 9 9 9 9 9 9 9 9 9 10 11 11 11 12 12
34 32 31 30 28 27 27 27 26 24 23 23 22 22 20 19 19 18 18 17 16 15 15 14 12 11 10 7 5 4 4 4 5 7 8 10 13 14 12 11 10 10 10 10 12 13 12 12 12 13 13 14 13 13 12 12 13 13 14 14 14 14 15 15 16 16 14 11 9 8 9 10 10 10 9 9 9 9 9 9 10 10 10 11 12
35 33 31 29 28 25 25 26 25 24 23 23 23 22 21 20 19 18 17 17 16 15 14 13 12 10 9 6 3 3 2 4 5 7 8 9 12 14 12 11 10 9 9 10 13 13 12 12 11 12 13 13 12 12 12 12 13 13 14 16 14 13 14 15 16 15 12 10 9 9 10 10 10 10 10 9 9 9 9 9 10 10 11 12 13
33 33 31 29 28 26 25 25 23 23 22 23 23 22 21 20 19 18 17 17 16 15 14 13 11 9 7 5 3 2 2 4 5 7 8 9 12 14 12 11 10 9 9 11 12 12 12 12 11 11 11 11 12 11 11 12 12 12 14 16 14 12 12 12 13 12 10 9 10 10 10 11 11 11 10 10 10 10 10 10 10 10 11 12 12
31 32 31 29 28 27 25 24 22 21 21 22 22 21 21 20 19 18 17 17 15 15 13 12 10 8 6 4 3 3 3 4 6 8 8 8 10 12 12 11 10 9 9 12 12 11 12 12 11 11 10 11 11 11 10 10 10 11 14 15 13 12 11 10 10 10 10 9 10 10 11 11 11 11 10 10 10 10 10 10 10 10 11 11 12
31 32 31 30 29 27 26 25 22 21 20 21 21 20 20 20 19 18 17 16 15 14 13 11 9 7 5 4 5 4 5 6 7 8 8 8 8 10 11 11 11 10 11 13 12 11 11 11 11 10 10 10 10 10 9 8 8 10 12 13 11 10 9 8 8 9 10 10 11 11 12 12 11 11 10 11 10 10 10 11 11 11 12 12 13
31 32 31 30 30 28 27 25 24 22 21 21 21 20 19 19 19 18 17 16 15 13 12 10 8 6 6 6 7 6 6 7 8 9 9 8 8 8 10 11 12 11 12 13 12 11 10 10 10 10 10 9 8 8 7 6 6 8 10 10 8 7 7 6 7 8 8 9 10 11 12 11 11 11 12 12 12 11 11 12 12 12 13 13 14
31 32 31 30 30 29 28 26 25 23 22 22 22 21 20 19 18 18 17 16 14 13 11 10 8 7 7 8 8 8 9 9 10 10 9 8 8 8 8 10 10 12 13 13 12 10 10 9 9 9 8 7 5 5 5 5 5 6 8 7 5 5 5 5 5 6 7 8 10 11 12 12 12 12 12 12 12 12 12 12 12 13 13 13 14
28 30 31 31 30 30 29 27 26 24 24 23 22 21 20 19 18 17 17 15 14 12 11 10 9 9 9 10 10 10 11 11 11 10 10 9 8 8 8 8 10 12 13 12 11 10 9 8 8 7 6 4 3 3 3 3 4 6 6 4 4 5 4 4 5 5 6 9 10 11 11 12 12 11 12 12 12 12 12 12 12 13 13 13 13
27 28 29 30 30 30 29 27 26 25 25 23 23 22 20 20 19 18 17 16 14 13 12 11 11 11 12 12 12 13 12 11 10 9 9 9 8 8 8 8 9 11 11 11 10 9 8 8 7 6 5 4 3 2 1 2 4 6 5 3 4 5 3 3 5 6 7 9 11 10 10 12 12 11 11 12 12 12 12 12 11 12 13 14 14
28 28 29 30 30 30 29 28 27 26 25 24 24 23 21 21 20 19 18 16 15 13 12 12 12 14 14 12 12 13 12 11 10 8 8 8 8 7 8 7 7 8 9 10 9 9 9 8 7 6 5 4 3 1 1 1 3 5 4 3 3 4 3 4 5 7 8 10 11 10 10 12 12 11 11 12 12 12 11 11 12 12 12 13 13
30 31 30 29 30 31 30 29 28 27 26 25 24 24 22 22 21 20 18 17 16 14 13 12 13 15 14 11 11 11 11 10 9 8 7 8 8 7 7 7 6 7 7 8 7 8 7 7 6 6 5 3 2 2 2 2 3 4 4 4 5 5 4 6 8 9 10 11 11 9 9 10 10 9 9 10 11 10 10 11 11 11 10 11 12
31 31 30 30 30 31 30 30 29 28 28 26 25 24 23 22 22 20 18 17 16 15 14 14 14 15 14 11 10 10 9 8 8 7 6 6 8 7 7 6 6 6 6 6 5 5 5 5 4 3 3 2 2 2 2 2 4 6 6 5 6 7 8 9 11 12 12 12 11 10 9 8 8 8 9 8 8 8 10 11 10 9 9 10 11
31 30 31 32 31 31 30 30 29 29 28 26 25 25 24 23 22 21 18 17 16 15 15 16 16 15 14 11 9 10 10 8 7 6 5 6 7 7 7 7 7 6 6 5 4 4 4 4 3 3 2 1 2 2 2 3 6 8 8 7 8 9 10 11 12 13 14 14 13 11 10 10 9 9 10 8 7 7 8 10 9 9 9 10 11
31 31 32 32 32 32 31 30 30 29 28 26 26 25 25 24 22 20 18 17 16 16 16 18 17 15 13 10 9 11 11 10 9 8 7 6 6 6 7 7 7 7 6 5 5 5 4 3 3 2 2 3 3 3 3 5 8 9 10 10 10 11 11 12 13 14 14 14 14 12 11 11 10 10 9 9 8 8 8 9 10 10 10 11 13
32 31 33 33 33 34 32 31 30 29 28 26 26 25 24 24 22 20 19 18 17 19 19 18 16 14 11 10 9 11 11 11 10 10 8 8 7 7 7 8 8 7 6 6 5 5 4 3 3 2 3 5 6 5 6 7 9 9 12 12 12 12 11 12 13 13 14 14 13 12 12 12 12 11 10 9 9 9 9 10 11 12 13 14 15
33 33 33 34 35 35 35 33 31 30 28 27 26 25 24 23 22 21 20 19 20 22 20 17 15 13 11 11 10 12 13 12 12 11 10 9 9 9 9 9 9 7 7 6 5 5 3 4 4 3 5 8 8 8 9 9 9 11 13 13 13 12 12 13 13 13 13 13 13 13 12 13 14 13 12 11 12 12 12 12 13 14 15 16 16
34 35 35 35 36 36 36 34 32 30 28 27 26 26 25 24 23 22 22 21 21 21 19 16 14 13 13 13 13 13 13 13 13 12 12 11 11 11 10 10 10 9 8 6 7 7 5 6 6 5 7 9 10 11 12 11 11 13 14 13 13 13 13 13 13 13 13 12 12 13 12 13 14 14 13 13 14 15 15 15 15 15 15 16 16
35 36 36 36 36 36 36 35 33 30 28 27 27 27 26 24 23 22 22 23 22 20 18 16 16 16 15 15 15 15 14 13 13 13 13 12 13 13 11 11 11 10 9 8 8 8 7 8 8 7 9 11 11 12 13 13 14 15 15 14 14 13 14 14 13 13 12 11 11 11 12 12 13 13 13 14 16 16 16 16 16 16 16 16 16
36 37 37 38 37 37 37 36 34 30 29 28 27 27 27 25 23 23 24 24 22 20 19 17 18 19 17 17 17 16 15 14 14 14 14 14 14 14 13 13 13 11 10 9 9 9 8 8 8 8 11 12 12 12 15 17 18 17 17 16 15 14 13 13 12 12 10 10 10 10 10 10 11 12 13 15 16 16 16 16 16 16 16 16 16
36 38 39 39 38 38 38 37 35 31 30 29 27 28 28 26 24 23 24 25 23 20 20 20 20 19 19 19 18 17 16 15 15 14 14 15 15 15 15 14 14 12 11 10 10 10 9 10 10 10 12 13 14 17 20 21 20 19 18 17 17 15 13 11 10 9 9 9 9 8 8 9 10 11 12 14 15 15 15 16 16 16 16 16 16
35 37 39 39 39 38 38 37 36 33 32 30 28 28 28 26 25 24 24 24 22 22 22 21 20 19 18 19 18 17 16 16 16 15 14 16 16 16 16 15 14 13 11 10 11 11 10 11 11 11 13 16 18 22 23 23 22 21 20 19 18 16 13 11 10 9 8 9 8 8 8 8 9 10 12 13 14 14 14 14 15 15 15 15 16
35 37 39 40 39 38 37 36 36 35 34 32 28 28 28 27 25 25 25 23 23 25 24 20 19 18 18 18 18 17 16 17 16 15 15 16 17 18 17 15 15 14 12 11 12 12 11 12 12 13 18 21 23 23 23 23 22 21 20 18 17 16 14 13 11 10 8 8 8 8 8 7 8 9 10 11 12 13 13 13 13 14 13 13 14
38 38 39 39 39 38 36 35 35 35 35 32 28 28 28 27 26 26 25 23 25 27 24 21 20 18 18 18 18 17 17 17 16 16 15 16 18 19 18 17 15 15 14 13 13 13 12 12 11 15 21 23 24 23 22 21 20 19 18 16 15 14 13 12 11 10 9 9 9 9 9 10 10 9 9 10 12 12 11 11 12 13 13 12 12
40 40 40 39 38 37 36 34 34 35 34 31 29 29 29 29 27 26 25 25 26 25 22 22 21 19 18 17 17 18 18 17 16 16 15 16 17 18 18 17 16 15 14 14 14 12 12 12 12 15 20 23 23 22 22 20 19 18 16 15 14 11 10 10 8 8 9 10 11 11 12 13 13 12 12 13 15 15 14 13 12 13 14 13 11
41 42 41 40 39 37 36 34 33 34 33 31 31 31 30 29 28 27 26 26 25 24 23 23 22 21 19 16 17 18 18 17 16 15 14 14 16 17 17 17 16 14 13 15 14 13 12 11 13 16 18 21 22 22 21 20 19 18 16 14 12 11 9 8 7 7 7 9 10 11 11 11 12 13 13 14 15 16 16 16 16 16 17 16 14
41 41 41 40 38 36 36 35 33 34 33 32 32 32 31 30 29 27 28 27 25 25 24 24 24 22 18 16 17 18 18 17 17 15 14 15 17 17 17 17 16 13 13 14 15 14 12 11 14 17 18 18 19 20 20 19 18 17 15 14 11 10 9 7 7 7 7 8 8 8 9 10 10 11 11 13 13 13 14 15 16 17 18 18 18
41 40 39 38 37 35 35 34 33 34 34 33 33 34 32 31 30 29 29 28 27 26 25 24 24 21 18 18 18 18 19 18 17 16 15 17 18 18 17 16 14 14 14 14 15 15 13 12 14 17 19 19 18 18 18 18 18 17 15 14 11 9 8 7 7 6 7 7 7 7 7 8 9 9 9 11 12 12 11 12 13 15 16 18 19
38 39 38 37 37 36 35 34 33 34 35 34 35 36 34 33 32 31 31 30 29 27 26 25 23 20 19 19 18 18 20 19 17 17 17 17 16 16 16 15 13 13 13 13 13 13 13 13 14 18 20 21 20 18 18 18 18 16 13 12 11 9 7 6 6 5 5 5 5 5 5 7 8 9 8 9 10 11 11 10 10 11 13 16 18
38 40 39 38 37 37 36 35 34 34 34 34 35 36 35 35 33 32 32 31 30 29 28 25 23 21 20 19 18 19 20 20 18 18 18 17 17 16 15 14 13 13 13 12 12 12 12 13 16 20 21 21 21 19 18 15 13 14 12 10 7 6 5 4 4 3 3 3 5 6 5 7 8 8 7 8 8 10 11 9 9 10 11 13 16
39 40 40 39 38 36 36 35 35 35 34 35 35 35 35 34 32 31 31 31 30 29 27 24 22 21 20 19 19 19 20 20 21 21 21 20 20 19 17 16 14 14 14 13 13 12 12 13 17 21 23 21 19 20 18 11 10 16 13 6 2 3 2 2 4 3 3 4 5 7 7 8 8 8 6 6 7 9 11 9 9 10 10 11 13
36 38 39 40 38 37 37 37 36 36 35 35 35 34 33 32 30 30 30 29 27 26 25 23 22 21 20 20 19 19 20 21 22 23 22 22 21 20 18 17 15 15 14 14 14 14 14 15 17 21 23 22 20 20 16 9 13 16 9 3 2 3 1 3 5 5 3 4 6 8 9 8 8 7 5 5 6 8 10 10 10 10 9 10 11
37 39 40 41 39 38 38 38 38 37 35 35 35 34 32 30 29 28 27 25 24 24 24 23 23 22 21 21 20 20 22 23 23 23 23 22 21 20 19 17 17 16 14 14 14 15 17 17 17 20 21 21 20 21 15 9 13 14 8 5 3 1 3 5 7 5 5 5 5 7 8 8 7 5 3 2 4 5 7 9 9 9 9 9 8
36 39 41 41 40 39 39 39 38 37 36 36 35 35 33 32 32 30 27 25 23 25 27 26 25 23 22 21 21 22 24 24 23 22 23 22 21 19 18 18 17 16 15 14 14 16 18 17 17 18 19 19 19 20 17 11 13 13 9 6 4 3 5 8 6 2 5 5 4 5 5 6 6 5 4 2 3 4 5 7 8 9 10 8 9
34 37 40 39 39 40 39 39 38 37 37 37 36 36 35 34 33 32 29 27 25 25 27 28 26 24 23 21 22 24 24 24 22 22 22 22 21 19 17 16 16 16 15 15 17 17 18 17 16 16 18 19 19 20 19 15 15 14 12 9 6 6 8 11 7 3 3 4 6 8 6 5 5 4 3 2 4 4 4 5 7 8 8 9 12
34 38 39 39 39 40 40 39 38 38 37 37 37 37 36 35 34 32 29 28 28 27 27 27 25 24 23 23 24 24 23 23 22 21 21 20 20 19 17 16 15 16 15 16 18 18 18 17 15 15 17 19 19 19 19 18 18 16 13 11 8 8 10 10 10 8 5 2 4 7 8 8 7 6 3 3 4 4 4 5 6 7 7 12 14
37 40 40 40 39 40 40 38 37 37 37 37 38 38 37 35 33 31 29 28 28 28 27 27 26 26 25 24 24 24 23 22 21 20 20 19 19 18 17 15 14 15 16 16 17 17 17 17 16 15 16 18 19 18 19 20 19 16 14 12 10 11 10 8 11 9 5 3 3 4 8 9 9 9 7 4 4 1 2 3 5 5 9 13 15
38 40 39 38 38 38 38 37 37 37 37 38 38 37 36 35 34 32 30 29 27 27 27 28 28 27 26 26 25 24 23 23 22 20 19 18 18 17 16 15 15 16 16 17 17 17 16 16 16 15 15 17 18 18 19 20 18 16 16 15 14 15 11 7 9 10 5 4 3 4 9 10 8 8 8 5 3 2 3 1 4 8 11 14 14
35 37 37 36 37 37 37 37 37 36 37 38 38 37 35 35 35 33 33 31 29 29 29 29 29 29 29 28 26 25 23 22 21 20 18 18 17 15 14 14 16 17 16 16 16 16 16 16 15 16 16 17 18 18 18 17 17 17 16 16 16 15 11 8 10 11 7 5 5 4 8 11 8 5 6 5 1 3 5 7 9 11 13 14 14
Wind_Direction
161 158 155 155 155 149 144 144 144 143 141 138 135 133 131 127 125 122 122 119 114 114 113 111 105 103 100 96 92 87 83 80 82 84 90 100 104 106 107 108 111 114 113 113 110 103 101 102 100 105 111 108 104 109 117 120 118 112 107 104 101 98 97 96 96 97 99 100 99 99 97 96 93 92 94 93 89 83 78 81 85 81 73 69 68
159 157 155 155 155 149 146 145 143 144 142 140 137 138 135 131 128 126 127 122 118 117 115 113 107 106 102 98 94 88 84 82 87 91 92 96 104 110 111 112 112 116 116 113 108 101 99 98 96 105 108 105 104 111 119 121 117 111 108 106 102 100 98 97 95 93 94 96 98 99 98 96 94 91 90 89 87 82 76 76 81 78 73 73 72
153 154 154 154 154 150 148 146 144 143 141 141 139 140 138 134 130 131 131 124 122 120 117 115 110 108 102 99 95 89 88 88 91 94 97 93 102 114 114 114 115 116 118 117 113 108 106 101 97 103 103 101 105 112 119 121 118 112 109 107 104 101 99 97 95 92 89 90 92 96 98 95 91 87 85 87 87 86 85 81 78 74 71 73 74
151 152 153 152 153 151 148 146 145 142 144 143 141 142 139 136 133 135 133 127 124 122 121 118 113 108 102 100 96 94 93 92 92 94 100 91 102 116 117 116 115 116 118 120 118 116 113 105 100 101 100 100 105 113 119 120 117 113 110 107 105 102 100 97 93 91 88 87 88 91 94 93 87 82 83 85 84 84 86 84 80 74 73 72 70
152 151 152 153 153 152 150 149 147 145 147 145 144 143 139 137 136 138 134 128 126 125 125 119 115 111 108 106 100 99 94 92 94 98 99 92 107 117 118 118 115 115 117 121 121 117 112 108 104 100 98 100 106 113 118 119 116 113 110 106 104 102 99 95 92 90 87 86 88 91 90 88 82 77 80 82 81 80 81 82 81 76 74 73 68
154 153 154 154 154 153 152 151 148 147 148 146 145 143 140 139 138 140 135 129 128 128 126 121 119 116 114 111 106 104 97 92 95 100 97 94 111 118 118 120 116 115 117 120 120 114 110 109 105 100 99 103 109 115 118 118 116 113 109 105 98 91 85 81 81 85 95 92 89 94 89 83 78 74 75 75 77 77 78 79 78 73 69 68 67
156 156 156 155 155 154 154 151 147 148 147 147 145 142 141 140 141 141 137 131 130 131 128 126 122 119 116 112 113 112 103 94 94 100 99 98 111 119 119 120 118 117 119 121 120 116 113 108 103 103 105 109 114 119 120 118 117 113 106 98 86 76 66 58 52 57 114 120 99 98 92 82 76 73 71 71 73 72 73 72 70 66 61 58 56
155 157 157 156 156 155 153 150 148 148 147 146 144 142 142 142 143 143 139 134 133 134 132 130 124 121 118 116 119 116 107 96 96 103 108 107 111 120 121 121 120 120 122 122 121 117 113 106 104 108 109 113 119 121 121 120 117 110 101 90 76 67 56 50 49 55 130 132 107 102 91 80 75 72 69 67 66 64 63 60 57 53 49 47 43
154 156 157 157 156 154 153 151 149 148 148 146 143 142 143 144 145 145 142 138 137 136 135 133 128 125 123 122 122 117 109 96 95 107 123 121 116 122 125 124 124 124 124 124 124 122 114 107 108 110 112 116 121 122 121 119 114 106 95 82 69 64 53 55 63 73 127 123 105 103 87 76 74 71 67 61 56 51 46 42 39 37 37 39 37
154 156 158 158 156 155 154 151 150 149 148 146 145 145 145 146 147 147 146 143 141 140 140 137 133 130 128 129 125 118 108 96 93 108 128 128 124 127 127 128 129 129 128 128 127 123 115 112 114 113 114 117 120 121 120 115 108 98 84 74 63 55 46 57 69 80 124 120 106 102 84 74 72 67 63 54 47 39 32 29 28 30 32 36 36
155 157 158 157 156 157 154 152 151 149 148 147 147 148 148 148 148 148 148 147 145 145 144 141 137 135 135 131 127 120 105 94 95 108 123 125 124 126 128 130 134 135 133 130 124 121 120 119 118 116 115 117 119 120 117 110 100 87 74 64 53 43 36 53 73 87 124 122 106 100 87 74 68 61 53 44 37 31 26 27 29 28 27 34 34
156 158 157 156 156 157 155 152 151 149 148 149 149 150 150 150 149 150 150 150 149 149 148 144 140 139 138 133 130 123 105 96 100 112 122 126 125 126 131 133 136 138 136 131 130 130 126 122 120 118 118 117 119 119 116 108 94 80 67 55 50 48 43 56 81 104 126 118 103 98 87 71 62 54 43 36 29 25 25 29 31 27 23 27 24
156 157 156 156 157 158 155 153 152 150 150 150 151 152 152 152 151 151 152 152 151 151 149 146 144 142 141 142 140 125 108 98 103 119 125 130 133 133 135 138 141 141 140 139 140 135 127 124 123 122 121 119 120 120 116 105 91 76 64 56 59 66 67 76 96 117 125 115 103 93 79 67 56 47 38 33 27 23 25 29 31 26 20 18 13
156 156 156 157 157 157 155 154 153 152 153 152 154 154 153 153 153 154 154 153 152 152 151 149 148 145 147 150 144 122 110 100 109 127 129 135 141 140 139 143 147 148 149 147 143 136 129 126 124 125 124 122 121 119 114 102 89 73 64 61 66 80 83 91 107 119 122 114 99 84 72 64 54 47 39 34 29 26 28 29 28 24 17 13 9
158 157 157 158 157 157 157 156 155 156 157 155 156 156 155 156 156 158 156 155 155 154 152 151 151 150 151 151 142 120 108 108 121 136 135 138 145 144 142 148 152 153 157 154 146 138 133 129 127 128 126 125 123 118 110 99 85 70 68 66 67 88 94 100 109 114 113 103 88 78 70 64 56 50 44 38 33 30 32 31 26 19 13 12 12
159 159 158 158 157 157 158 158 159 160 160 159 159 158 158 158 159 160 159 158 158 157 155 155 155 154 155 152 151 142 127 123 132 145 140 139 148 147 146 152 157 160 164 158 150 142 136 133 132 130 129 128 123 118 109 97 81 69 72 68 67 89 102 105 107 106 101 93 82 74 67 63 56 51 47 42 38 33 32 29 23 16 14 16 17
160 161 160 159 158 157 158 161 164 164 163 162 160 160 160 160 161 162 162 160 159 160 159 158 157 156 156 153 157 159 150 137 140 151 145 140 149 154 153 157 163 169 172 164 155 146 141 138 136 134 131 128 121 117 111 98 80 70 72 70 70 88 103 106 102 97 93 87 77 70 64 60 54 50 46 41 39 35 32 30 25 22 23 26 28
160 163 161 160 158 157 159 162 167 167 165 163 161 161 162 163 164 165 164 162 162 163 162 158 156 156 155 153 158 163 159 146 146 154 149 141 144 157 162 163 169 177 177 167 158 152 147 143 140 138 133 127 122 120 117 102 78 66 67 70 73 88 101 101 91 85 81 79 73 68 64 58 52 47 44 42 41 40 37 36 35 34 36 37 39
160 163 162 161 159 158 161 165 169 168 167 165 162 162 164 166 166 166 166 165 165 165 163 157 153 154 156 157 160 162 159 151 151 153 151 143 134 147 161 167 174 180 176 167 161 158 153 149 145 140 135 131 128 125 121 100 72 55 56 68 82 93 97 91 81 75 72 72 70 67 63 56 53 50 48 49 48 48 45 46 47 45 46 45 46
159 163 164 163 160 161 164 168 170 168 170 167 163 165 167 167 167 168 168 168 168 167 164 156 153 155 157 157 156 155 153 149 150 152 151 144 133 132 144 157 167 170 169 167 165 163 159 155 150 147 144 143 138 129 119 92 59 38 45 66 100 101 91 83 68 61 62 66 66 63 62 61 60 57 55 55 54 53 50 52 54 51 50 50 51
160 164 165 164 162 164 167 170 171 170 172 168 166 167 167 169 170 170 170 171 169 167 165 157 156 155 150 144 137 137 139 142 147 152 151 145 136 129 131 143 154 161 165 168 169 169 168 166 164 166 165 165 157 138 116 77 37 29 49 79 113 103 82 68 55 53 65 71 70 65 65 68 66 64 61 59 58 56 54 53 55 54 51 51 48
161 164 165 166 165 167 170 172 172 172 173 169 169 167 167 172 173 173 175 175 170 169 167 161 161 156 146 134 127 123 123 129 139 151 152 145 139 134 134 137 149 161 170 174 177 178 178 181 185 189 191 192 186 162 87 58 36 43 77 112 107 99 83 60 53 62 74 79 79 75 76 76 71 68 64 61 57 56 58 55 54 54 50 49 41
162 165 168 169 168 170 172 174 173 174 173 172 173 168 170 177 176 179 179 176 172 171 169 165 166 160 148 134 127 121 117 117 121 135 148 151 148 144 144 144 151 159 171 180 186 190 192 198 202 205 204 205 205 165 70 74 51 64 105 143 120 110 95 66 64 74 80 81 82 81 83 81 76 70 66 63 58 57 57 53 54 55 50 45 35
165 167 169 171 172 173 174 175 175 175 174 174 175 171 176 180 180 183 181 177 175 171 171 170 170 168 159 141 131 126 121 120 120 122 134 156 160 160 159 161 166 164 167 171 176 183 188 196 201 205 203 193 160 105 113 100 76 100 133 153 142 125 102 84 81 84 84 83 82 80 80 78 72 65 61 60 59 57 48 44 49 48 43 33 20
165 165 169 173 175 176 175 176 178 178 178 177 176 175 180 182 183 186 183 179 176 173 176 174 171 172 165 149 140 138 133 133 137 131 126 145 155 162 168 172 180 179 176 168 162 162 162 166 166 170 167 149 125 117 157 138 108 141 161 155 139 119 104 97 91 88 87 84 79 76 75 70 63 56 52 50 51 48 36 36 40 37 31 20 10
163 166 171 175 178 181 179 178 180 182 182 179 176 179 183 184 186 186 183 180 176 177 179 172 169 167 163 154 151 155 155 153 154 156 154 147 144 150 158 168 178 178 176 167 160 157 151 149 137 133 145 160 163 146 172 163 144 159 168 157 137 122 111 101 93 90 89 84 77 72 70 67 61 56 54 52 47 41 37 37 33 31 27 19 18
165 168 173 176 180 183 182 180 182 184 185 182 179 182 185 187 188 187 183 180 176 179 176 168 166 164 163 162 163 167 170 168 170 180 184 170 158 157 157 163 168 166 167 161 159 155 143 149 140 128 167 177 162 138 128 143 156 166 166 158 141 128 115 103 96 93 91 84 77 69 66 65 60 57 56 57 56 51 52 50 38 31 29 30 36
166 170 174 176 180 183 183 182 182 184 186 185 184 186 187 188 190 189 184 180 178 177 171 165 164 165 169 174 174 175 176 178 187 196 194 187 187 183 179 177 174 174 173 168 173 163 146 164 155 127 157 158 143 130 125 136 155 168 164 156 142 130 119 108 101 97 92 85 77 67 63 62 57 56 57 59 61 59 60 62 55 47 44 47 51
168 172 174 177 181 183 183 183 183 183 185 187 189 190 188 189 192 191 185 181 179 175 173 171 169 169 179 186 182 183 189 197 203 206 202 198 199 195 192 189 187 189 185 180 187 179 170 181 174 168 164 148 135 136 137 135 145 162 163 154 143 133 124 114 104 100 93 85 79 70 63 59 54 53 59 65 66 66 65 67 67 62 58 56 56
170 173 174 177 181 182 183 184 183 183 184 187 191 191 189 190 194 192 186 184 180 177 178 179 177 179 185 188 191 197 206 210 208 209 205 201 202 198 195 195 191 193 194 191 192 188 192 192 180 179 173 152 140 146 145 133 136 156 162 154 147 137 125 114 106 102 94 87 83 74 64 55 53 55 64 72 70 68 67 68 68 66 64 60 58
170 172 174 177 180 183 184 184 184 183 184 188 191 190 189 191 192 190 186 184 182 182 185 182 181 187 190 193 199 209 212 211 212 211 207 204 202 197 194 193 185 183 186 184 184 182 182 181 169 167 170 155 143 149 151 141 141 154 162 159 154 142 124 115 111 106 98 91 82 74 66 56 54 59 68 74 74 71 68 68 67 66 64 60 58
171 172 175 176 179 182 184 184 185 185 186 189 190 190 190 190 191 190 186 184 183 187 190 186 187 193 200 205 207 212 211 212 215 212 209 207 201 194 191 186 177 173 171 169 170 169 165 158 153 155 160 159 146 143 151 147 141 148 156 159 157 144 126 118 114 107 100 93 82 73 68 63 60 63 70 73 74 75 71 67 65 65 63 60 57
173 173 174 177 179 181 183 184 185 187 189 190 191 191 191 191 192 191 187 185 187 191 192 191 195 200 206 209 208 210 212 215 216 210 208 207 199 191 186 182 178 172 164 161 161 160 159 152 152 152 156 162 148 139 142 137 132 136 144 152 154 146 134 127 121 112 103 94 87 79 70 67 65 67 74 74 72 74 73 68 64 63 62 59 57
172 172 175 177 179 180 181 184 186 188 190 192 192 192 192 192 194 194 190 190 193 196 195 194 198 202 204 207 208 210 214 215 214 207 202 202 197 188 184 181 177 171 165 164 164 164 164 161 161 153 152 158 146 140 140 130 126 128 131 139 142 140 138 133 128 120 111 102 95 90 82 73 69 71 77 78 75 72 71 68 62 59 59 58 56
172 172 176 178 179 179 180 182 186 189 191 192 191 191 192 193 197 198 194 196 196 195 196 195 197 200 201 207 210 211 211 211 209 203 200 198 194 189 184 176 170 168 169 170 171 171 170 169 168 155 148 150 145 142 141 133 128 126 125 129 130 130 131 128 126 120 113 110 106 99 92 80 72 74 76 80 79 73 69 66 63 59 56 55 52
173 173 175 177 179 180 180 180 184 188 189 190 190 191 193 194 198 198 197 196 190 192 198 198 200 203 203 208 210 208 207 209 206 201 199 195 190 189 182 172 168 169 169 169 170 170 168 163 162 161 152 147 145 141 141 139 132 127 127 128 126 128 126 122 121 115 109 105 100 96 90 82 80 81 79 76 72 68 61 56 57 56 54 52 44
175 175 175 176 179 180 181 181 183 187 187 188 190 191 193 196 196 196 195 190 186 192 199 199 204 206 206 209 209 206 206 207 204 202 199 190 185 185 180 173 171 172 170 169 172 173 172 159 147 161 162 151 148 142 138 138 134 131 131 129 129 129 126 122 115 109 108 101 93 92 87 80 78 77 77 73 67 63 58 51 49 48 49 50 43
176 177 177 178 180 180 182 183 183 186 186 187 190 190 191 192 193 195 195 189 190 198 199 200 204 205 206 209 208 206 208 206 202 201 194 183 181 180 177 175 174 176 177 176 177 177 178 168 149 156 167 159 153 147 140 138 134 132 129 127 130 130 127 127 124 119 115 106 99 95 88 81 75 69 70 71 67 64 61 58 56 52 48 48 45
176 178 179 179 180 180 182 183 184 186 185 186 187 186 186 187 191 195 194 191 195 199 199 200 201 200 204 208 207 204 207 207 202 199 185 172 173 172 171 173 177 182 183 179 179 178 176 172 161 158 163 162 158 153 147 140 133 129 126 124 126 128 129 130 135 132 124 119 115 108 98 88 79 70 63 62 62 60 58 56 54 52 47 43 40
176 177 178 178 179 180 182 183 185 187 186 185 183 182 182 184 189 190 188 189 193 195 195 197 195 197 202 204 204 202 204 205 204 201 184 170 168 165 165 173 186 190 184 178 178 180 180 175 169 165 161 156 155 155 154 148 134 122 120 123 123 124 129 135 137 131 127 125 123 120 111 97 88 80 63 52 49 45 44 48 46 43 41 39 35
175 176 176 178 179 180 181 183 186 187 187 186 183 181 179 181 184 183 183 185 189 189 189 191 192 194 200 202 203 202 201 199 201 199 187 179 174 167 169 179 193 197 189 184 179 180 185 182 173 170 167 157 151 154 159 154 135 121 117 117 119 124 127 138 143 145 150 150 151 145 124 106 97 87 67 48 40 30 27 37 40 38 36 34 32
175 176 176 177 180 181 182 183 186 188 188 186 183 181 181 183 182 181 182 184 186 187 187 188 191 193 198 202 202 200 199 196 194 190 185 185 182 179 185 189 195 199 193 187 183 180 183 185 176 168 167 163 159 160 163 158 141 137 134 114 104 119 128 142 146 150 152 149 170 174 152 123 103 90 73 51 39 24 21 34 42 40 35 32 29
175 175 175 176 179 181 182 184 188 189 189 187 183 182 184 186 185 183 184 184 186 190 190 190 191 194 196 199 200 197 195 192 188 185 181 183 186 189 194 195 196 200 197 189 184 182 179 184 180 169 162 161 161 166 171 173 156 145 134 118 114 122 126 178 169 156 123 107 130 148 145 129 106 97 87 61 44 28 32 50 50 44 39 29 24
173 174 175 175 178 179 181 185 188 190 189 187 185 185 184 186 189 189 188 187 187 189 189 190 192 193 192 193 195 193 191 188 187 186 183 185 192 195 196 195 196 201 205 199 190 186 181 180 180 173 166 160 160 169 176 186 174 156 132 113 134 125 203 217 177 168 153 116 115 126 127 123 110 107 106 76 56 44 53 62 52 47 36 19 21
176 176 175 176 177 179 182 185 188 190 190 188 187 186 184 183 185 185 184 183 182 182 182 184 187 188 188 188 190 189 186 185 185 185 185 190 195 197 197 195 195 200 208 209 201 193 186 182 181 179 177 172 167 171 175 180 185 177 158 138 124 131 222 183 157 167 189 165 130 127 126 127 122 121 142 119 72 62 62 60 56 50 26 13 26
180 176 175 177 178 179 182 185 187 189 190 189 188 187 186 185 182 179 177 174 173 178 180 180 181 184 186 186 185 184 183 183 184 184 186 190 194 196 198 196 197 200 205 207 202 195 188 184 185 187 189 186 177 173 175 179 189 195 196 190 208 236 184 156 144 156 202 201 186 171 157 153 152 149 173 180 103 91 67 56 55 41 22 22 33
178 174 174 177 179 180 182 184 186 187 189 190 189 189 188 188 186 184 181 177 174 179 183 184 183 184 185 183 180 179 180 182 184 186 188 190 192 195 198 199 200 201 201 201 197 193 189 186 187 190 192 194 188 179 177 178 185 200 217 220 231 226 172 159 162 147 165 220 224 208 200 196 188 173 176 165 126 104 71 61 45 29 27 36 36
173 172 175 178 179 181 182 184 185 186 188 189 190 191 191 190 188 187 185 183 182 181 182 185 185 184 182 179 178 178 180 183 185 188 190 191 194 198 200 200 200 198 199 199 196 192 191 187 185 189 192 196 199 192 184 181 184 194 205 207 209 199 175 170 176 162 133 166 218 215 211 212 205 185 173 155 146 110 66 52 29 27 41 39 36
172 173 176 178 180 181 182 183 184 186 187 188 190 192 194 191 189 187 186 186 186 182 180 182 183 182 179 177 178 180 181 185 187 189 191 192 197 199 201 202 199 197 197 197 195 192 193 191 188 190 191 193 201 205 197 190 190 191 189 185 176 165 160 165 174 166 131 134 185 220 210 205 206 205 211 198 169 137 25 15 20 49 52 39 36
174 175 175 177 179 180 182 183 185 186 186 188 189 191 192 191 190 188 186 185 183 177 176 178 179 179 177 175 177 178 179 182 185 189 191 192 195 198 201 201 198 197 198 194 191 190 192 194 193 193 192 190 195 202 201 196 197 197 188 179 166 155 149 145 160 161 134 123 152 195 199 197 203 211 209 191 173 333 330 28 77 71 52 39 35
174 173 174 177 179 180 182 183 184 185 186 188 190 190 191 191 191 189 187 186 181 175 173 174 176 177 176 175 177 178 178 180 182 185 189 190 193 197 198 195 194 196 197 196 193 192 191 192 193 194 195 193 190 191 192 191 192 193 188 183 174 168 168 162 161 163 151 135 135 158 195 202 209 201 176 166 111 64 96 102 89 68 49 40 34
Height
801 803 805 806 807 808 809 809 810 811 813 814 815 816 817 818 819 821 822 823 824 825 824 825 825 825 826 826 827 827 827 827 827 827 827 827 827 828 828 829 829 829 829 829 829 829 829 829 829 828 828 828 828 828 828 828 829 829 829 829 829 830 830 830 831 831 831 831 831 831 831 831 831 831 831 831 831 830 830 830 830 830 830 830 830
798 802 804 806 807 808 809 809 811 811 813 814 815 816 817 818 819 821 822 823 824 825 825 825 826 826 827 827 828 828 828 828 828 828 828 827 827 828 829 830 829 830 830 830 830 830 830 830 830 829 829 829 829 829 829 829 830 830 830 830 830 831 831 831 832 832 832 832 832 832 832 832 832 832 832 832 832 831 831 831 831 831 831 830 830
797 802 804 806 807 807 809 809 811 812 813 814 816 817 817 819 819 821 822 823 824 825 826 826 826 827 827 828 828 828 829 829 829 829 828 828 828 829 830 830 830 830 830 831 831 831 831 831 831 830 830 830 830 830 830 831 831 831 831 831 832 832 832 832 833 833 833 833 833 833 833 833 833 833 833 833 833 833 833 832 832 831 831 831 831
798 802 804 806 807 808 809 810 811 812 813 814 816 817 818 819 820 821 822 823 824 825 826 826 827 827 828 828 829 829 829 829 830 829 829 828 828 829 830 831 831 831 831 832 832 832 831 832 832 831 831 831 831 831 831 832 832 832 832 833 833 833 834 834 834 834 834 834 834 834 834 834 834 834 834 834 833 833 833 833 833 832 832 832 831
799 801 804 806 807 808 809 810 811 812 813 814 816 817 818 819 820 821 822 823 824 825 826 827 827 827 828 828 829 829 830 830 830 830 829 829 828 829 831 832 832 832 832 832 832 832 832 832 832 832 832 831 832 832 832 833 833 833 833 834 834 835 835 835 835 835 835 835 835 835 835 835 835 835 835 835 834 834 834 834 833 833 833 832 832
798 801 803 805 807 808 809 810 811 812 814 814 816 817 819 820 820 821 822 823 824 825 826 827 827 828 828 829 829 830 830 830 830 830 830 829 828 830 831 832 832 832 833 833 833 833 833 833 832 832 832 832 832 833 833 834 834 834 835 835 835 836 836 836 836 836 836 835 835 835 835 835 835 836 836 835 835 835 834 834 834 834 833 833 833
797 800 803 804 806 807 809 810 812 813 814 815 816 818 819 820 821 821 822 823 824 826 826 827 828 828 829 829 830 830 830 830 831 831 830 830 829 830 831 832 833 833 833 833 834 834 834 833 833 833 833 833 833 833 834 834 835 835 836 836 837 837 837 837 837 837 836 836 836 836 836 836 836 836 836 836 836 835 835 835 835 834 834 833 833
797 800 802 804 805 807 809 810 812 813 814 815 816 818 819 820 821 822 822 823 824 826 826 827 828 828 829 830 830 830 831 831 831 831 831 831 830 831 832 833 833 833 834 834 834 835 835 834 834 834 833 833 834 834 835 835 836 836 836 837 837 837 837 838 837 836 836 836 836 836 837 837 837 837 837 837 836 836 836 836 835 835 834 834 833
798 800 801 804 805 807 808 810 812 813 814 815 817 818 819 820 821 822 822 823 824 826 826 827 828 829 829 830 830 831 831 831 831 831 832 832 832 832 832 833 834 834 834 834 835 835 835 835 835 834 834 834 835 835 836 836 836 837 837 837 837 837 837 837 837 837 836 837 837 838 837 837 838 837 837 837 837 837 836 836 835 835 834 834 834
798 800 802 803 805 807 808 810 811 813 814 815 817 818 819 820 821 822 822 823 824 825 826 827 828 829 829 830 831 831 832 832 832 832 832 832 833 833 833 834 835 835 835 835 835 835 835 835 835 835 835 835 836 836 837 837 837 838 838 838 837 837 837 837 837 837 837 838 838 838 838 838 838 838 838 838 837 837 837 836 836 835 835 835 834
797 800 802 803 805 807 808 810 811 813 814 815 817 818 819 820 821 822 823 823 824 825 826 827 828 829 829 830 831 831 832 832 832 832 833 833 833 834 834 835 836 836 835 835 835 836 836 835 836 836 836 836 837 837 837 838 838 839 838 838 838 838 837 837 837 837 838 838 839 839 839 839 839 838 838 838 838 838 837 837 837 836 836 835 835
798 800 802 804 805 807 808 810 811 813 814 815 817 818 820 821 822 822 823 824 825 826 826 827 827 829 830 830 831 831 832 832 832 832 833 833 833 834 835 836 836 836 836 836 836 836 836 836 836 837 837 837 838 838 838 839 839 839 839 839 839 838 837 836 837 837 838 839 839 839 840 840 839 839 839 839 838 838 838 837 837 837 836 836 836
797 800 802 804 805 808 809 810 811 813 814 815 817 818 820 821 822 822 823 824 825 826 826 827 828 829 830 831 831 831 832 832 832 833 833 833 833 834 835 836 837 837 837 836 836 836 837 837 837 837 838 838 838 838 839 839 840 840 840 840 839 838 837 837 837 837 838 839 840 840 840 840 839 839 839 839 839 839 838 838 838 838 837 836 836
796 799 802 804 806 808 809 811 812 813 814 815 817 818 820 821 823 823 824 825 826 826 827 828 828 829 830 831 831 831 832 832 832 833 833 833 833 834 835 837 837 838 837 837 836 837 837 838 838 838 838 838 839 839 840 840 841 841 840 840 839 839 838 837 838 838 839 840 840 840 840 840 840 840 840 840 839 839 839 839 839 838 838 837 836
795 798 802 804 806 809 810 812 813 814 814 816 817 818 820 821 823 824 824 825 826 827 827 828 828 829 830 830 831 831 832 832 832 833 833 833 833 834 835 836 837 838 838 837 837 837 838 838 839 839 839 839 840 840 841 841 841 841 841 841 840 840 840 839 839 840 840 840 841 841 841 840 840 840 840 840 840 839 839 839 839 838 838 837 836
795 798 801 804 806 808 811 813 814 815 815 816 818 819 820 821 823 824 825 826 826 827 828 828 829 830 830 831 831 831 832 832 832 833 833 833 833 834 835 836 837 838 838 838 838 838 838 839 839 840 840 840 840 841 841 842 842 842 842 841 841 840 841 841 841 841 841 841 841 841 841 841 841 841 840 840 840 840 840 839 839 838 838 837 837
797 798 801 804 806 808 810 813 815 816 816 817 818 819 821 822 823 824 825 826 826 827 828 829 829 830 830 831 831 831 831 831 832 833 833 833 834 834 835 836 837 838 838 838 838 838 839 839 840 840 841 841 841 842 842 843 842 842 843 842 841 842 842 842 842 841 842 842 842 842 841 841 841 841 841 841 841 840 840 840 839 839 838 838 837
797 799 801 803 806 808 810 813 815 816 817 818 819 820 821 822 823 824 825 826 826 828 828 829 829 830 830 831 831 831 831 831 832 833 833 834 834 834 835 836 837 838 838 838 838 839 839 839 840 841 841 842 842 842 842 843 843 843 843 843 842 842 843 843 843 842 843 842 842 842 842 842 842 842 841 841 841 841 840 840 839 839 838 838 837
798 799 801 803 805 808 810 812 814 816 817 818 819 820 821 822 823 824 825 825 826 827 828 829 829 830 830 830 830 830 831 831 832 833 833 834 834 834 834 835 836 837 838 838 839 839 840 840 840 841 841 842 842 843 842 843 843 844 844 844 843 843 843 843 843 843 843 843 843 842 843 842 842 842 842 841 841 841 841 840 840 840 839 839 838
798 800 801 803 804 807 809 812 813 815 817 818 819 820 821 822 823 824 824 825 826 827 828 829 829 830 830 830 830 830 830 831 832 833 833 834 834 834 834 835 836 837 838 838 839 840 840 841 841 841 842 842 842 843 843 843 844 844 845 844 844 844 844 844 844 844 843 843 843 843 843 843 843 843 842 842 842 842 842 841 841 840 840 839 838
799 800 801 803 804 807 808 811 813 815 817 818 819 820 821 822 823 824 824 825 825 827 828 829 829 830 830 830 830 830 830 831 832 833 833 834 834 834 835 835 836 837 838 839 839 840 841 841 841 841 842 842 842 843 843 844 844 844 844 844 844 844 844 844 844 844 844 844 844 844 844 844 844 843 843 843 843 843 842 842 841 841 840 840 839
798 800 801 802 804 806 808 810 812 815 816 818 819 819 821 821 822 823 824 824 825 827 828 829 829 829 830 830 830 830 831 831 832 833 833 834 834 834 835 836 837 838 838 839 840 840 841 841 841 841 841 842 842 843 843 844 844 844 844 844 844 844 845 845 845 845 845 845 845 845 845 844 844 844 844 844 843 843 843 843 842 841 841 840 840
796 798 801 802 804 805 807 810 812 814 816 817 818 819 820 821 822 822 823 824 825 826 827 828 829 829 830 830 831 831 831 832 832 833 834 834 834 834 835 836 837 838 838 839 839 840 840 841 841 841 841 842 843 843 843 844 844 844 844 844 844 845 845 845 845 846 845 845 846 846 846 845 845 845 844 844 844 844 844 843 842 842 842 841 841
793 795 799 801 803 805 807 809 811 813 815 816 817 818 819 820 821 821 822 823 825 826 827 828 828 829 830 830 831 831 831 832 833 834 834 834 834 835 836 836 837 838 838 838 839 839 840 840 840 841 841 842 842 843 843 844 844 844 844 844 845 845 845 846 846 846 846 846 846 846 846 846 846 846 845 845 845 845 844 844 843 843 842 842 842
791 794 797 800 802 804 806 808 810 812 813 815 816 817 818 819 820 821 822 823 824 826 826 827 827 828 829 831 831 831 831 832 833 834 834 835 835 835 836 836 837 838 838 838 839 839 839 840 840 841 841 842 842 842 843 843 844 844 844 845 845 845 846 846 846 846 846 846 846 847 847 847 847 846 846 846 846 845 845 844 844 844 843 843 842
790 793 796 798 801 804 806 808 810 811 813 814 815 816 817 818 819 820 822 823 824 825 826 826 827 828 829 830 830 831 831 832 833 834 835 835 835 835 835 836 837 837 838 838 838 839 839 839 840 840 840 841 841 842 842 843 844 844 845 845 845 846 846 846 846 847 847 847 847 847 847 847 847 846 846 846 846 846 846 845 845 844 844 843 843
788 790 794 797 800 803 806 807 809 810 812 813 814 815 816 817 818 820 821 823 824 824 825 825 826 828 829 830 830 830 831 832 833 834 835 835 835 835 835 836 836 837 837 838 838 838 839 839 839 840 840 841 841 841 842 842 844 844 845 845 845 846 846 846 847 847 847 847 848 848 848 848 847 847 847 847 847 846 846 846 845 845 845 844 843
785 789 792 795 799 802 805 806 808 809 811 812 814 814 815 816 817 819 821 822 823 823 824 825 826 828 829 829 830 830 831 832 833 833 834 834 835 835 835 836 836 837 837 837 838 838 839 839 839 839 840 840 841 841 842 843 844 844 845 845 846 846 846 847 847 848 848 848 849 849 849 848 848 847 847 847 847 847 847 847 846 846 845 845 844
783 787 790 794 797 800 803 805 806 808 809 811 812 813 814 815 817 818 820 821 822 823 823 825 826 827 828 829 829 830 830 831 832 833 833 833 834 834 835 835 836 836 837 837 837 838 838 839 839 839 840 840 840 841 842 843 844 844 845 845 846 846 847 847 847 848 849 849 849 850 849 849 848 848 848 848 848 848 847 847 847 847 846 846 845
782 785 789 792 795 799 802 804 805 806 808 810 811 812 813 814 816 817 819 820 821 822 823 824 826 827 827 828 829 829 830 831 831 832 832 833 833 834 834 834 835 836 836 837 837 838 838 838 839 839 840 840 841 842 842 843 844 844 845 846 846 847 848 848 848 849 849 850 850 850 850 849 849 849 849 849 849 848 848 848 848 847 847 846 846
781 783 787 790 793 797 800 802 804 805 806 808 809 810 812 814 815 817 818 819 820 821 822 824 825 825 826 827 827 828 829 830 831 831 832 832 833 833 834 834 835 835 836 836 837 837 838 838 839 840 840 840 841 841 842 843 844 844 845 846 847 847 848 848 849 850 850 850 850 850 850 850 850 850 850 850 849 849 849 849 848 848 848 847 847
778 780 784 788 791 794 797 800 802 804 805 807 808 809 810 812 814 815 816 818 819 821 821 823 823 824 825 826 827 827 828 829 830 830 831 832 832 833 833 834 834 835 836 836 837 837 838 838 839 840 840 841 841 841 842 843 844 844 845 846 847 848 849 849 850 850 850 850 850 850 850 850 850 850 850 850 850 850 850 850 849 849 848 848 848
775 778 782 786 789 792 795 798 800 802 804 805 806 808 809 812 813 814 815 817 819 820 820 821 822 823 824 825 826 827 828 828 828 829 830 831 831 832 833 833 834 834 835 836 837 837 838 838 839 840 840 840 841 841 842 843 844 845 846 846 848 849 849 850 850 851 851 851 851 851 851 851 851 851 851 851 851 851 851 851 850 850 849 849 849
774 777 780 784 787 790 793 795 798 800 802 804 805 806 809 811 812 813 815 816 818 819 819 821 822 822 824 824 825 826 827 827 828 828 829 830 831 832 832 833 833 834 835 836 836 837 837 838 838 839 840 840 841 841 842 843 845 845 846 847 848 849 849 850 851 851 851 851 851 851 851 851 851 851 851 852 851 851 851 851 851 851 851 850 850
773 775 778 782 786 789 791 793 795 797 799 802 803 806 808 810 811 813 814 816 817 818 819 820 821 822 823 824 825 826 826 826 827 828 828 829 830 831 832 833 833 834 834 835 836 837 837 837 838 838 839 840 841 842 843 844 845 846 847 847 848 849 850 851 851 852 852 852 852 852 852 852 852 852 852 852 852 852 852 851 851 851 851 851 851
770 774 777 781 785 787 789 791 793 796 798 800 802 805 807 809 810 812 814 815 816 817 818 819 820 821 822 823 824 825 825 825 826 827 828 828 830 831 832 833 833 834 834 835 836 836 837 837 838 838 839 840 841 842 843 844 845 846 847 848 849 849 850 851 852 852 853 852 853 853 853 853 853 853 852 852 852 852 852 852 852 852 851 851 851
767 771 775 779 783 785 788 790 792 794 796 799 801 804 806 808 809 811 813 814 815 816 817 818 819 820 821 822 823 824 824 824 825 826 827 828 829 830 832 833 833 833 833 834 835 836 836 837 838 838 839 840 841 842 844 845 846 847 848 849 849 850 851 852 853 853 853 853 853 853 854 854 853 853 853 853 853 853 853 852 852 852 852 851 851
766 769 772 776 780 783 786 788 791 793 795 798 800 803 805 807 809 810 812 812 814 815 816 817 818 819 820 822 822 823 823 824 825 826 826 828 829 830 831 832 832 832 833 834 835 836 836 836 838 839 839 840 841 842 844 845 846 847 849 850 850 851 852 853 853 854 854 854 854 854 854 854 854 854 854 854 854 854 853 853 853 853 853 852 852
764 767 771 775 778 782 785 787 789 791 794 796 799 802 804 806 807 809 810 811 812 813 815 816 817 818 820 821 821 822 823 823 825 826 826 828 828 829 830 831 832 832 833 834 834 835 835 836 837 838 839 840 841 843 844 845 846 848 849 850 851 852 853 853 854 854 854 854 854 855 855 854 854 854 854 854 854 854 854 854 854 854 854 853 852
761 765 769 773 777 780 783 786 788 790 792 794 797 799 801 803 805 806 808 809 811 812 813 815 816 818 819 820 821 821 822 823 824 825 826 827 828 829 830 831 831 832 833 833 834 834 835 835 836 837 839 840 842 843 844 844 846 848 850 851 852 853 854 854 854 855 855 855 855 855 855 855 854 854 854 854 855 855 855 855 855 854 854 853 853
760 763 767 771 775 778 781 784 787 789 790 792 794 796 798 800 801 803 805 807 809 810 812 814 815 817 818 819 820 821 822 822 824 824 825 826 827 828 829 829 830 831 832 832 833 834 834 835 835 837 838 839 842 844 844 844 845 848 850 852 853 853 854 855 855 855 855 855 855 855 855 855 854 854 854 854 855 855 855 855 855 855 854 854 853
756 759 763 768 773 776 779 782 785 787 788 790 792 794 795 797 798 801 804 806 807 808 810 812 814 816 817 818 819 820 821 822 823 823 824 825 825 826 827 828 829 830 832 832 833 833 834 835 835 836 837 839 841 843 844 844 845 847 849 852 854 854 855 855 855 855 855 855 855 855 855 855 854 854 855 855 855 855 855 855 855 855 854 854 853
752 756 760 765 770 773 777 780 783 785 787 789 791 793 795 796 799 801 804 805 806 808 809 811 813 815 816 817 819 820 821 822 823 823 824 824 825 826 827 828 829 830 831 832 833 833 834 834 835 835 837 839 841 843 843 844 845 847 849 851 853 855 855 856 855 855 855 855 855 854 854 855 855 855 855 855 855 856 855 856 856 855 854 854 854
751 754 757 762 765 770 774 777 780 783 785 788 790 793 795 797 800 802 804 805 807 808 810 811 813 814 815 817 818 820 821 822 822 823 824 825 825 826 827 828 829 830 831 832 833 833 834 834 835 835 835 837 840 842 843 843 844 845 848 851 854 855 855 854 855 855 855 855 855 855 854 855 855 855 855 855 856 856 856 856 855 855 855 854 854
747 749 752 757 761 766 770 774 777 780 783 787 789 792 794 797 799 802 804 805 806 807 808 810 811 813 814 816 818 819 820 821 822 823 823 824 825 826 827 828 829 830 831 832 832 833 834 834 834 835 835 836 838 840 842 843 843 844 845 848 852 854 852 852 853 854 855 855 855 855 855 855 855 855 855 856 856 856 856 856 856 855 855 855 854
743 746 749 754 759 763 768 771 774 778 781 784 787 790 792 794 796 798 800 802 803 805 805 807 809 811 813 815 817 819 820 821 822 822 823 824 825 826 827 828 828 830 831 831 832 833 833 833 834 835 835 836 837 839 841 842 844 844 844 845 847 847 847 849 852 854 855 855 855 855 855 855 855 855 855 856 856 856 856 856 856 856 855 855 854
741 744 748 753 757 761 765 769 772 775 779 782 785 788 790 792 793 795 797 799 801 802 804 806 808 810 813 815 816 818 819 820 821 822 823 824 825 826 827 828 828 829 830 831 831 832 832 833 833 834 835 836 837 838 839 841 842 844 844 844 844 844 844 846 849 851 853 854 854 854 855 855 855 855 855 856 856 856 856 856 856 856 856 855 855
738 742 746 750 754 758 762 766 769 773 776 779 782 785 788 790 792 794 797 798 799 801 803 805 808 810 812 814 815 817 818 819 820 822 823 824 825 826 827 828 829 830 831 831 831 831 832 832 833 834 835 836 837 837 838 839 840 842 843 844 844 843 843 843 845 847 849 852 853 854 854 854 855 855 855 856 856 856 856 857 857 856 856 856 854
735 738 742 747 752 756 760 764 767 771 774 777 780 783 786 788 791 793 795 798 799 800 802 805 807 809 811 813 814 816 818 819 820 821 822 824 825 826 827 828 829 830 831 831 831 831 831 832 832 834 835 836 837 837 838 838 840 841 842 842 843 843 843 843 844 845 846 849 852 853 853 853 854 855 855 856 856 856 856 856 857 857 856 856 854
732 735 740 746 751 755 759 762 765 768 771 775 778 781 784 787 789 792 794 796 798 799 802 804 806 808 810 812 813 815 816 818 820 821 822 823 824 825 826 827 829 830 831 831 831 831 831 832 832 833 834 835 836 837 837 838 839 840 841 841 841 841 842 843 844 844 845 847 850 851 851 852 853 854 854 855 856 856 855 855 856 857 856 855 854
731 735 740 744 749 753 756 760 763 766 769 773 776 779 783 785 787 790 792 794 796 797 800 802 804 806 808 810 812 814 815 817 819 820 821 822 823 825 826 827 828 829 831 832 832 831 831 831 832 833 834 835 835 836 836 837 838 839 840 840 840 840 840 841 842 843 844 846 847 849 850 851 852 853 854 855 856 855 855 856 856 856 856 854 853